This demonstration page uses our WeatherBlox Daily Observations layout. Learn more.

Left ArrowRight Arrow

38.88101, -77.10428

Hourly Observations for December 24, 2019

Temp ( °F °C ) Dew Point ( °F °C ) Humidity (%) Winds ( mph kmh ) Pressure ( in mb ) Visibility ( mi km ) Precip ( " mm )
12:52 am 00:52 Cloudy 37 2.8 33 0.6 86 86 N N/A 30.02 1017 8 13 N/A
1:52 am 01:52 Cloudy 34 1.1 31 -0.6 89 89 N 5 7 30.03 1017 9 14 N/A
2:52 am 02:52 Partly Cloudy 35 1.7 32 undefined 89 89 N N/A 30.04 1017 9 14 N/A
3:52 am 03:52 Partly Cloudy 35 1.7 32 undefined 89 89 N N/A 30.04 1017 10 16 N/A
4:52 am 04:52 Partly Cloudy 34 1.1 31 -0.6 89 89 N N/A 30.03 1017 10 16 N/A
5:52 am 05:52 Mostly Cloudy 35 1.7 30 -1.1 82 82 NE 3 6 30.03 1017 10 16 N/A
6:52 am 06:52 Mostly Clear 35 1.7 31 -0.6 85 85 N 7 11 30.06 1018 10 16 N/A
7:52 am 07:52 Mostly Cloudy 35 1.7 32 undefined 89 89 NNE 7 11 30.09 1019 9 14 N/A
8:52 am 08:52 Mostly Cloudy 44 6.7 36 2.2 73 73 NNE 6 9 30.11 1020 10 16 N/A
9:52 am 09:52 Mostly Cloudy 46 7.8 35 1.7 66 66 NNE 3 6 30.13 1020 10 16 N/A
10:52 am 10:52 Mostly Cloudy 50 10 36 2.2 59 59 NNE 8 13 30.12 1020 10 16 N/A
11:52 am 11:52 Mostly Cloudy 53 11.7 36 2.2 52 52 NNE 13 20 30.11 1020 10 16 N/A
12:52 pm 12:52 Mostly Cloudy 52 11.1 35 1.7 53 53 NE 8 13 30.10 1019 10 16 N/A
1:52 pm 13:52 Mostly Cloudy 52 11.1 33 0.6 49 49 ENE 12 19 30.10 1019 10 16 N/A
2:52 pm 14:52 Mostly Cloudy 51 10.6 33 0.6 50 50 ENE 10 17 30.11 1020 10 16 N/A
3:52 pm 15:52 Mostly Cloudy 49 9.4 33 0.6 55 55 ENE 8 13 30.12 1020 10 16 N/A
4:52 pm 16:52 Mostly Cloudy 47 8.3 32 undefined 56 56 ENE 7 11 30.14 1021 10 16 N/A
5:52 pm 17:52 Mostly Cloudy 44 6.7 32 undefined 63 63 E 8 13 30.14 1021 10 16 N/A
6:52 pm 18:52 Mostly Clear 45 7.2 31 -0.6 58 58 NE 3 6 30.16 1021 10 16 N/A
7:52 pm 19:52 Clear 41 5 30 -1.1 65 65 NNE 3 6 30.17 1022 10 16 N/A
8:52 pm 20:52 Clear 41 5 31 -0.6 67 67 N 3 6 30.17 1022 10 16 N/A
9:52 pm 21:52 Clear 39 3.9 31 -0.6 73 73 N N/A 30.18 1022 10 16 N/A
10:52 pm 22:52 Clear 35 1.7 32 undefined 89 89 NNE 3 6 30.19 1022 7 11 N/A
11:52 pm 23:52 Clear 36 2.2 32 undefined 86 86 N N/A 30.17 1022 8 13 N/A

Powered by AerisWeather